World > North America > United States > Texas > Tolar  

Tolar, TX Hourly Weather Updates

Feedback E-mail the Weather

Quick Clicks

Tolar, TX Weather Maps

°F °C°F °C
Tolar Weather Map
UTC Time: 5/25/2024, 13:56
Your Time:

Tolar, TX Regional Weather

Expires:202405251400;;840208
ASUS44 KFWD 251315
RWRTX 
NORTH TEXAS HOURLY WEATHER ROUNDUP
NATIONAL WEATHER SERVICE FORT WORTH TX
800 AM CDT SAT MAY 25 2024

NOTE: "FAIR" INDICATES FEW OR NO CLOUDS BELOW 12,000 FEET WITH NO
SIGNIFICANT WEATHER AND/OR OBSTRUCTIONS TO VISIBILITY.


TXZ091>094-102>105-117-120-121-131>134-251400-
NORTH CENTRAL TEXAS
  
CITY           SKY/WX    TMP DP  RH WIND       PRES   REMARKS
SHRMAN/DENISON CLOUDY    72  68  88 E5        29.84R FOG              
GAINESVILLE    CLOUDY    70  70 100 E3        29.84S                  
BOWIE          CLOUDY    69  68  98 CALM      29.83R FOG              
BRIDGEPORT     CLOUDY    70  70 100 CALM      29.83R FOG              
DECATUR        CLOUDY    70  69  98 CALM      29.82S FOG              
DENTON         CLOUDY    73  71  93 E8        29.82R                  
MCKINNEY       CLOUDY    71  68  90 SE5       29.83R                  
BONHAM         CLOUDY    72  69  89 SE5       29.84R                  
GREENVILLE     CLOUDY    73  71  94 E5        29.84R                  
ROCKWALL       CLOUDY    72  72 100 E6        29.83S                  
TERRELL        CLOUDY    72  69  90 E6        29.83R                  
WAXAHACHIE     CLOUDY    71  71  98 VRB3      29.84R                  
CLEBURNE       CLOUDY    75  75 100 S3        29.82R FOG              
GRANBURY       CLOUDY    71  70  98 CALM      29.81S                  
$$


SKY/WX - Weather  TMP - Temperature  DP - Dew Point  RH - Humidity
WIND - Wind Direction/Speed PRES - Barometric Pressure VSB - Visibility
WCI - Wind Chill Index E13G22 Wind - East Wind 13 mph/Gusts of 22 mph

Trending Headlines

Trending Entertainment Headlines

Tolar Radar Loop

Use the map search tool if you want to place a location marker on the radar map...

Tolar Quick Facts

National Two Day Weather Forecast


E-mail the Tolar Weather Forecast

Voice your opinion or tell us about page issues...